254  
ASCA42 TJSJ 180210  
RWRPR  
PUERTO RICO/U.S. VIRGIN ISLANDS HOURLY WEATHER ROUNDUP  
NATIONAL WEATHER SERVICE SAN JUAN PR  
1000 PM AST SAT FEB 17 2018  
 
PRZ001>002-007>008-010-180300-  
PUERTO RICO  
 
CITY SKY/WX TMP DP RH WIND PRES REMARKS
 
SAN JUAN LMM PTCLDY 75 70 83 E13 30.15S  

 
 
VIZ001>002-180300-  
U.S. VIRGIN ISLANDS  
 
CITY SKY/WX TMP DP RH WIND PRES REMARKS
 
CHARLOTTE AMA PTCLDY 75 68 78 E14 30.14R  
CHRISTIANSTED PTCLDY 75 68 78 NE10 30.14R  

 
 
HOURLY WEATHER ROUNDUP FOR THE NEWS MEDIA  
 
CITY SKY/WX TMP DP RH WIND PRES REMARKS
 
ORLANDO FAIR 74 56 53 W9 30.21R  
NEW YORK LGT SNOW 32 32 100 NE8 30.13F VSB 3/4 WCI 25  
NEWARK LGT SNOW 33 31 92 NE7 30.11F VSB 3/4 WCI 27  
CHICAGO CLOUDY 31 26 82 W17G23 30.04R WCI 19  
HARTFORD LGT SNOW 33 32 96 SE8 30.21F VSB 1 WCI 26  
BOSTON LGT SNOW 32 28 85 S16 30.22 FOG WCI 21  
DALLAS MOCLDY 56 45 66 E5 30.18R  
PHILADELPHIA LGT SNOW 32 31 96 E7 30.08 FOG WCI 26  
LOS ANGELES PTCLDY 61 55 81 W12 30.05R  
WASHINGTON DC CLOUDY 33 33 100 CALM 30.10R  
 
CLICK HERE TO GO TO PREVIOUS BULLETINS.

The Nexlab PR Page Main Text Page